Location: Wanzleben
(52.0609°N, 11.4408°E)
Time: 06:08:05
(UTC+00:00)

Cosmos 2227 - Pass Details

Date: 18 September 2020
Orbit: 836 x 859 km, 71.0° (Epoch: 18 October)

Event Time Altitude Azimuth Distance (km) Brightness Sun altitude
Rises 17:58:27 0° 197° (SSW) 3,421 7.4 -6.5°
Reaches altitude 10° 18:00:55 10° 194° (SSW) 2,487 6.7 -6.9°
Maximum altitude 18:06:33 62° 115° (ESE) 958 4.3 -7.7°
Drops below altitude 10° 18:12:11 10° 36° (NE) 2,490 6.4 -8.6°
Sets 18:14:40 0° 33° (NNE) 3,426 7.2 -9.0°
